Location: Courçay
(47.2523°N, 0.8761°E)
Time: 07:34:41
(UTC+00:00)

ATLAS 2AS CENTAUR R/B - Pass Details

Date: 18 November 2025
Orbit: 1047 x 1163 km, 63.7° (Epoch: 06 December)

Event Time Altitude Azimuth Distance (km) Brightness Sun altitude
Rises 17:29:54 0° 316° (NW) 3,863 6.0 -12.2°
Reaches altitude 10° 17:33:01 10° 327° (NNW) 2,892 5.2 -12.7°
Maximum altitude 17:38:48 29° 26° (NNE) 1,842 3.6 -13.6°
Enters shadow 17:42:14 19° 69° (ENE) 2,262 3.8 -14.2°
